This is the latest recevied weather packets stored in our database for station/object KQ4JKJ. If no packets are shown the sender has not sent any weather packets the latest 1 day(s).
| Time | Temp. | Humidity | Pressure | Rain* | Wind** | Luminosity | Snow |
|---|---|---|---|---|---|---|---|
| 1778042988 | 23.89° C | 79% | 1010.9 hPa | 0 mm | 0.45 m/s, 46° | 0 W/m² | - |
| 1778042687 | 23.89° C | 79% | 1010.8 hPa | 0 mm | 0.45 m/s, 103° | 0 W/m² | - |
| 1778042383 | 23.89° C | 78% | 1010.7 hPa | 0 mm | 0 m/s | 0 W/m² | - |
| 1778042080 | 23.89° C | 78% | 1010.8 hPa | 0 mm | 1.34 m/s, 146° | 0 W/m² | - |
| 1778041778 | 23.89° C | 78% | 1010.8 hPa | 0 mm | 0.45 m/s, 75° | 0 W/m² | - |
| 1778041477 | 23.89° C | 78% | 1010.7 hPa | 0 mm | 0.45 m/s, 129° | 0 W/m² | - |
| 1778041175 | 23.89° C | 78% | 1010.7 hPa | 0 mm | 0.45 m/s, 137° | 0 W/m² | - |
| 1778040872 | 23.89° C | 78% | 1010.7 hPa | 0 mm | 0.89 m/s, 138° | 0 W/m² | - |
| 1778040570 | 23.89° C | 78% | 1010.8 hPa | 0 mm | 1.34 m/s, 140° | 0 W/m² | - |
| 1778040267 | 23.89° C | 78% | 1010.8 hPa | 0 mm | 0.89 m/s, 149° | 0 W/m² | - |
| 1778039963 | 23.89° C | 77% | 1011 hPa | 0 mm | 0 m/s | 0 W/m² | - |
| 1778039661 | 23.89° C | 77% | 1010.7 hPa | 0 mm | 1.79 m/s, 171° | 0 W/m² | - |
| 1778039357 | 23.89° C | 78% | 1010.9 hPa | 0 mm | 0.89 m/s, 76° | 0 W/m² | - |
| 1778039054 | 23.89° C | 77% | 1010.9 hPa | 0 mm | 1.34 m/s, 142° | 0 W/m² | - |
| 1778038751 | 23.89° C | 77% | 1010.9 hPa | 0 mm | 0.45 m/s, 99° | 0 W/m² | - |
| 1778038449 | 23.89° C | 78% | 1011 hPa | 0 mm | 0.89 m/s, 101° | 0 W/m² | - |
| 1778038145 | 23.89° C | 77% | 1011 hPa | 0 mm | 0.45 m/s, 95° | 0 W/m² | - |
| 1778037842 | 23.89° C | 77% | 1010.8 hPa | 0 mm | 0.45 m/s, 64° | 0 W/m² | - |
| 1778037539 | 23.89° C | 77% | 1011 hPa | 0 mm | 0.89 m/s, 50° | 0 W/m² | - |
| 1778037236 | 23.89° C | 77% | 1011.1 hPa | 0 mm | 0.89 m/s, 80° | 0 W/m² | - |
| 1778036934 | 23.89° C | 78% | 1010.8 hPa | 0 mm | 0 m/s | 0 W/m² | - |
| 1778036632 | 23.89° C | 77% | 1010.9 hPa | 0 mm | 0.45 m/s, 80° | 0 W/m² | - |
| 1778036328 | 23.89° C | 77% | 1010.9 hPa | 0 mm | 0.45 m/s, 97° | 0 W/m² | - |
| 1778036025 | 23.89° C | 76% | 1010.9 hPa | 0 mm | 0.45 m/s, 183° | 0 W/m² | - |
| 1778035722 | 23.89° C | 77% | 1010.9 hPa | 0 mm | 0.89 m/s, 52° | 0 W/m² | - |
* Rain latest hour (hover to see other rain measurements)
** Current wind speed in m/s (hover to see current wind gust speed)